Flag for U.S.A. Weather past 2 weeks in Norfolk, Virginia, U.S.A.

Now
55 °F

Partly sunny.


Feels Like: 53 °F
Forecast: 37 / 52 °F
Wind: 7 mph from Southwest

Location: Norfolk Naval Air Station

Current Time: Jan 25, 2015 at 3:24:45 PM

Latest Report: Jan 25, 2015 at 2:59 PM


Visibility: 10 mi

Pressure: 29.87 "Hg

Humidity: 37%

Dew point: 29 °F

Location of NorfolkLocation

Historic Weather in Norfolk — Graph

°F

Norfolk temperature yesterday

Maximum temperature yesterday: 59 °F (at 1:59 AM)
Minimum temperature yesterday: 40 °F (at 5:59 AM)
Average temperature yesterday: 44 °F

Past Weeks' High & Low Weather Summary

 TemperatureHumidityPressure
High62 °F (Jan 12, 2:59 PM)100% (Jan 22, 4:59 AM)30.71 "Hg (Jan 22, 4:59 AM)
Low24 °F (Jan 11, 2:59 AM)34% (Jan 11, 10:59 AM)29.44 "Hg (Jan 24, 12:59 PM)
Average43 °F68%30.15 "Hg
* Reported Jan 10 1:59 PM — Jan 25 1:59 PM, Norfolk, Weather by CustomWeather, © 2014

Note: Actual official high and low records may vary slightly from our data, if they occured in-between our weather recording intervals... More about our weather records

Advertising

Norfolk weather history for previous 24 hours

 ConditionsComfort  
Time TempWeatherWind HumidityBarometerVisibility
1:59 PM
Jan 25
54 °FScattered clouds.6 mph38%29.89 "Hg10 mi
12:59 PM53 °FScattered clouds.6 mph39%29.90 "Hg10 mi
11:59 AM51 °FScattered clouds.6 mph42%29.93 "Hg10 mi
10:59 AM48 °FScattered clouds.5 mph52%29.96 "Hg10 mi
9:59 AM46 °FScattered clouds.6 mph56%29.96 "Hg10 mi
8:59 AM42 °FScattered clouds.6 mph62%29.92 "Hg10 mi
7:59 AM40 °FBroken clouds.5 mph68%29.91 "Hg10 mi
6:59 AM40 °FPassing clouds.6 mph65%29.90 "Hg10 mi
5:59 AM39 °FPassing clouds.5 mph67%29.87 "Hg10 mi
4:59 AM38 °FClear.8 mph68%29.83 "Hg10 mi
3:59 AM39 °FClear.14 mph65%29.82 "Hg10 mi
2:59 AM39 °FClear.16 mph65%29.80 "Hg10 mi
1:59 AM40 °FClear.8 mph63%29.78 "Hg10 mi
12:59 AM41 °FClear.12 mph60%29.76 "Hg10 mi
11:59 PM
Jan 24
41 °FClear.10 mph62%29.75 "Hg10 mi
10:59 PM42 °FClear.8 mph62%29.72 "Hg10 mi
9:59 PM43 °FClear.10 mph62%29.69 "Hg10 mi
8:59 PM43 °FClear.9 mph79%29.67 "Hg10 mi
7:59 PM43 °FClear.8 mph79%29.66 "Hg10 mi
6:59 PM43 °FClear.9 mph79%29.64 "Hg10 mi
5:59 PM43 °FPassing clouds.9 mph79%29.60 "Hg10 mi
4:59 PM44 °FBroken clouds.9 mph76%29.57 "Hg10 mi
3:59 PM43 °FLight rain. Mostly cloudy.13 mph76%29.55 "Hg10 mi
Weather by CustomWeather, © 2014

See weather overviewHow to use our weather pages